PST,Max TemperatureF,Mean TemperatureF,Min TemperatureF,Max Dew PointF,MeanDew PointF,Min DewpointF,Max Humidity, Mean Humidity, Min Humidity, Max Sea Level PressureIn, Mean Sea Level PressureIn, Min Sea Level PressureIn, Max VisibilityMiles, Mean VisibilityMiles, Min VisibilityMiles, Max Wind SpeedMPH, Mean Wind SpeedMPH, Max Gust SpeedMPH,PrecipitationIn, CloudCover, Events, WindDirDegrees
2011-12-1,39,34,30,36,33,28,100,90,81,30.79,30.67,30.43,10,5,0,8,3,,0.02,4,Fog-Rain,126
2011-12-2,43,40,36,37,34,32,93,82,65,30.52,30.48,30.42,10,9,5,7,3,,0.00,5,,68
2011-12-3,39,36,33,36,34,29,93,86,79,30.53,30.51,30.47,10,9,2,7,2,,0.00,8,Rain,154
2011-12-4,42,37,32,34,33,29,93,86,67,30.61,30.56,30.51,10,8,0,9,3,17,0.00,5,Fog,13
2011-12-5,39,34,30,34,30,28,93,85,70,30.58,30.50,30.42,10,9,2,6,2,,0.00,3,,110
2011-12-6,39,34,30,36,33,28,93,87,79,30.48,30.45,30.41,10,8,2,7,1,,0.00,6,,186
2011-12-7,39,38,37,37,36,33,96,90,79,30.48,30.45,30.43,10,6,0,6,3,,0.01,8,Fog,68
2011-12-8,39,36,33,34,31,30,89,80,70,30.46,30.42,30.37,10,10,10,7,3,,0.00,6,,7
2011-12-9,39,34,28,32,28,26,100,83,63,30.38,30.24,30.13,10,8,0,8,1,,0.00,0,Fog,161
2011-12-10,39,34,30,37,34,28,100,90,82,30.18,30.13,30.10,10,5,0,13,3,,0.01,6,Fog-Rain,173
2011-12-11,39,36,34,36,34,30,93,89,82,30.23,30.13,30.10,10,7,1,8,3,16,0.07,7,Rain,354
2011-12-12,37,32,28,32,28,25,96,89,73,30.29,30.22,30.10,10,4,0,6,2,,0.00,2,Fog,62
2011-12-13,39,34,28,30,26,22,92,70,49,30.14,30.07,30.03,10,10,10,8,1,,0.00,5,,75
2011-12-14,41,37,33,32,29,26,79,70,60,30.17,30.12,30.07,10,10,10,13,6,20,0.02,7,Rain,158
2011-12-15,43,40,37,41,38,32,93,88,79,30.48,30.32,30.10,10,6,0,8,4,,0.02,8,Fog-Rain,146
2011-12-16,48,45,42,41,40,39,93,82,74,30.48,30.45,30.40,10,10,8,12,8,,0.00,7,Rain,152
2011-12-17,51,44,36,40,35,32,93,73,50,30.39,30.18,30.01,10,10,10,9,2,,0.00,2,,164
2011-12-18,45,41,37,43,41,36,97,91,82,30.44,30.23,30.07,10,5,0,8,4,,0.06,7,Fog-Rain,244
2011-12-19,46,44,41,40,38,36,93,84,71,30.48,30.44,30.40,10,8,0,8,2,,0.00,8,Fog,159
2011-12-20,45,43,39,41,38,35,93,85,79,30.38,30.31,30.27,10,9,3,12,6,,0.03,8,Rain,210
2011-12-21,44,38,33,37,33,29,89,81,68,30.54,30.48,30.36,10,10,10,6,3,,0.00,2,,349
2011-12-22,43,36,30,29,27,24,88,70,53,30.53,30.39,30.31,10,10,10,18,6,29,0.00,1,,137
2011-12-23,48,44,39,43,36,25,93,73,55,30.55,30.49,30.34,10,10,5,18,12,25,0.00,7,,157
2011-12-24,51,48,45,43,41,38,87,80,61,30.48,30.39,30.20,10,10,10,17,10,24,0.12,5,Rain,152
2011-12-25,48,44,39,40,37,32,87,75,54,30.35,30.14,29.93,10,10,4,33,12,56,0.12,4,Rain,183
2011-12-26,43,40,37,36,35,33,87,80,70,30.35,30.26,30.13,10,10,7,20,9,29,0.05,7,Rain,157
2011-12-27,50,44,39,46,42,37,93,88,81,30.14,29.95,29.69,10,9,2,31,17,40,0.16,8,Rain,171
2011-12-28,54,51,48,49,47,43,89,85,80,29.83,29.72,29.57,10,10,2,36,23,46,0.05,7,Rain,194
2011-12-29,48,46,44,45,40,37,90,83,73,30.09,29.86,29.53,10,9,3,23,9,30,0.13,8,Rain,165
2011-12-30,48,42,35,45,36,24,87,75,49,30.22,29.77,29.52,10,10,2,23,15,31,0.09,7,Rain,217
2011-12-31,39,36,34,32,30,25,87,75,56,30.42,30.34,30.21,10,10,10,13,5,,0.00,1,,125